User: anonymous
Location: Unspecified
(0.0000°N, 0.0000°E)
Time: 07:56:12
(UTC+02:00)
Language:

HST - Orbit

View from above orbital plane
View from above orbital plane
View from above satellite
View from above satellite

Ground track
Ground track

The orbit data is extracted from the following two-line orbital elements,

1 20580U 90037B   14261.78690397  .00002607  00000-0  16388-3 0  1139
2 20580 028.4698 141.7007 0002854 205.5287 213.2684 15.05754638138835
Epoch (UTC): 18 September 2014 18:53:08
Eccentricity: 0.0002854
inclination: 28.4698°
perigee height: 547 km
apogee height: 551 km
right ascension of ascending node: 141.7007°
argument of perigee: 205.5287°
revolutions per day: 15.05754638
mean anomaly at epoch: 213.2684°
orbit number at epoch: 13883

The dashed part of the orbit path shows where the satellite is in the earth's shadow,  

DLR